Location: Klein M�hlingen
(51.9472°N, 11.7453°E)
Time: 11:50:05
(UTC+00:00)

ISS - Pass Details

Date: 30 September 2021
Orbit: 417 x 423 km, 51.6° (Epoch: 28 October)

Event Time Altitude Azimuth Distance (km) Brightness Sun altitude
Rises 17:25:52 0° 277° (W) 2,365 2.7 -6.0°
Reaches altitude 10° 17:27:58 10° 276° (W) 1,501 0.9 -6.3°
Maximum altitude 17:31:20 76° 192° (SSW) 437 -3.7 -6.8°
Drops below altitude 10° 17:34:42 10° 106° (ESE) 1,502 -1.6 -7.3°
Enters shadow 17:34:48 - 105° (ESE) 1,546 -1.5 -7.4°
